Dessau, Texas
Current Conditions -  °F | °C
As of 4:55 PM on Thursday 23 Oct 2014 (Local Time) from KEDC Reporting Station
Few Clouds Few Clouds  
Wind Chill: 81°   Ceiling: Unl
Heat Index: 81°   Visibility: 10mi
Dew Point: 57°   Wind: 7mph
Humidity: 45%   Direction: 110°ESE
Pressure: 30.06"   Gusts: NA
Location:  30.3795°N, 97.676°W
Report Text: KEDC 232155Z AUTO 11006KT 10SM FEW100 27/14 A3006 RMK AO2
Loading
Personal Weather Stations






























Interactive Weather Map
Tropical Storm Tracking
New forecast layout! Learn more

10-Day Weather Forecast

Advertisements
Track Severe Weather on mobile